Regional Weather Roundup
Issued by NWS

Home | Current Version | Previous Version | Text Only | Print | Product List | Glossary On
Versions: 1 2 3 4 5 6 7 8 9 10 11 12 13 14 15 16 17 18 19 20 21 22 23 24 25 26 27 28 29 30 31 32 33 34 35 36 37 38 39 40 41 42 43 44 45 46 47 48 49 50
000
ASUS43 KTOP 230159
RWRKS

WEATHER ROUNDUP FOR KANSAS
NATIONAL WEATHER SERVICE GOODLAND KS
900 PM CDT TUE JUL 22 2014

NOTE:  "FAIR" INDICATES FEW OR NO CLOUDS BELOW 12,000 FEET WITH NO
SIGNIFICANT WEATHER AND/OR OBSTRUCTIONS TO VISIBILITY.

KSZ001>006-013>018-027>032-041>047-230300-
NORTHWEST KANSAS

CITY           SKY/WX    TMP DP  RH WIND       PRES   REMARKS
GOODLAND       FAIR      86  61  42 SE8       30.19R
HAYS           FAIR      86  66  51 SE7       30.09S
HILL CITY      FAIR      88  71  57 NE14      30.11R
RUSSELL        FAIR      86  70  58 S7        30.07R
$$

KSZ061>065-074>080-084>089-230300-
SOUTHWEST KANSAS

CITY           SKY/WX    TMP DP  RH WIND       PRES   REMARKS
DODGE CITY     FAIR      83  65  54 S8        30.14R
ELKHART          N/A     79  64  60 S9          N/A
GARDEN CITY    FAIR      83  69  62 S8        30.15R
GREAT BEND     FAIR      84  70  61 S8        30.08R
LIBERAL        FAIR      86  61  42 SE8       30.16R
$$

KSZ066>073-081>083-090>101-230300-
SOUTHEAST KANSAS

CITY           SKY/WX    TMP DP  RH WIND       PRES   REMARKS
CHANUTE        FAIR      85  74  69 SW6       30.03S
COFFEYVILLE    FAIR      88  77  69 SW7       30.03R HX 100
HUTCHINSON     FAIR      82  71  69 CALM      30.07R
MEDICINE LODGE   N/A     89  70  53 SE5       30.07R
NEWTON         FAIR      88  66  48 S6        30.10R
PARSONS        FAIR      85  77  77 CALM      30.05R HX  95
WICHITA INTL   FAIR      87  72  60 S10       30.06R
WICHITA JABRA  FAIR      86  74  67 S8        30.06R
WINFIELD       FAIR      85  75  72 S8        30.07R
$$

KSZ007>012-019>026-033>040-048>060-102>105-230300-
NORTHEAST KANSAS

CITY           SKY/WX    TMP DP  RH WIND       PRES   REMARKS
CONCORDIA      FAIR      87  75  67 E8        30.07R HX  96
EMPORIA        FAIR      85  70  60 SW7       30.03R
LAWRENCE       FAIR      87  76  69 NW5       30.01R HX  97
MANHATTAN      FAIR      90  75  61 N5        30.03R HX 100
OLATHE IND     FAIR      87  76  69 S5        30.02S HX  97
OLATHE EXE     FAIR      89  76  65 CALM      30.02R HX 100
SALINA         FAIR      95  67  39 SW7       30.03S HX  99
TOPEKA BILLARD FAIR      91  77  63 N8        30.02R HX 104
TOPEKA FORBES  FAIR      89  76  65 CALM      30.02R HX 100
$$


USA.gov is the U.S. government's official web portal to all federal, state and local government web resources and services.